Content
SEND FEEDBACK

Daily
Averages
Monthly
Summary
United States of America

HARTVILLE, WYOMING


Home > North America > United States > Wyoming
Elevation: 4392 feet     Latitude: 42 14N     Longitude: 104 38W

WEATHER
 
SELECT A DAY
Number of Records: 146,125;   Date Range: 7/18/98 - 9/29/14
 
SHARE

PRINT THIS DATA

[ ← Previous Day ]
WEATHER ALMANAC - JANUARY 23, 2013
[ Next Day → ]
[ °C ]   °F
Weather ElementAverageHighLow
Temperature33.7 °F55 °F (1:53 pm)23 °F (10:53 pm)
Dewpoint12.4 °F19 °F (7:53 pm)6.1 °F (6:53 am)
Humidity46.2 %78 % (10:53 pm)15 % (1:53 pm)
Barometer30.15 in30.22 in (5:53 pm)30.07 in (3:53 am)
Wind Speed6.7 mph15 mph (3:53 pm)
Weather ElementAverage
Visibility10 mi
Wind DirectionENE (75.7 °)

Weather ElementTotal
Precipitation---
Heating Degree Days26 (Base 65)
Averaged from 23 records on January 23, 2013
WEATHER CONDITIONS BREAKOUT
WIND DIRECTION BREAKOUT
WEATHER BY HOUR - JANUARY 23, 2013
[ °C ]   °F
Local TimeTemperatureDewpointHumidityBarometerVisibilityWind DirectionWind SpeedGust SpeedPrecipitationEventsConditions
1:53 AM25.0 °F10.0 °F53 %30.09 in10.0 miCalmClear
2:53 AM24.1 °F9.0 °F53 %30.09 in10.0 miCalmClear
3:53 AM28.9 °F7.0 °F40 %30.07 in10.0 miCalmClear
4:53 AM25.0 °F9.0 °F51 %30.09 in10.0 miSSE (150°)4.6 mphClear
5:53 AM26.1 °F9.0 °F49 %30.12 in10.0 miNNW (330°)3.5 mphClear
6:53 AM34.0 °F6.1 °F31 %30.14 in10.0 miCalmClear
7:53 AM30.0 °F7.0 °F38 %30.14 in10.0 miCalmClear
8:53 AM35.1 °F7.0 °F31 %30.16 in10.0 miCalmClear
9:53 AM37.9 °F10.0 °F32 %30.20 in10.0 miCalmClear
10:53 AM43.0 °F12.0 °F28 %30.18 in10.0 miNNE (20°)6.9 mphClear
11:53 AM46.9 °F15.1 °F28 %30.16 in10.0 miCalmClear
12:53 PM51.1 °F10.9 °F20 %30.12 in10.0 miEast (90°)8.1 mphClear
1:53 PM55.0 °F8.1 °F15 %30.11 in10.0 miESE (110°)6.9 mphClear
2:53 PM51.1 °F9.0 °F18 %30.12 in10.0 miESE (120°)11.5 mphClear
3:53 PM43.0 °F17.1 °F35 %30.14 in10.0 miEast (90°)15.0 mphClear
4:53 PM35.1 °F16.0 °F46 %30.20 in10.0 miESE (110°)12.7 mphClear
5:53 PM30.9 °F16.0 °F54 %30.22 in10.0 miEast (90°)10.4 mphClear
6:53 PM28.9 °F18.0 °F64 %30.19 in10.0 miESE (110°)13.8 mphClear
7:53 PM27.0 °F19.0 °F72 %30.22 in10.0 miEast (100°)12.7 mphClear
8:53 PM26.1 °F18.0 °F71 %30.21 in10.0 miESE (120°)15.0 mphClear
9:53 PM24.1 °F18.0 °F77 %30.20 in10.0 miESE (110°)10.4 mphClear
10:53 PM23.0 °F17.1 °F78 %30.17 in10.0 miEast (100°)10.4 mphClear
11:53 PM23.0 °F17.1 °F78 %30.13 in10.0 miEast (90°)11.5 mphClear
Hourly data recorded from KTOR, located miles away from Hartville, Wyoming







STORIES FROM OUR PARTNERS